Temp
78 87 91 91 77 79 75 82 93 92 95 102 103 99 95 99 91 78 102 105 98 92 86 84 80 80 80 80 80 79 79 79 79 79 79 79 79 80 79 80 80 81 81 82 81 81 81 81 80
87 93 93 87 73 70 76 89 89 95 101 103 101 100 98 95 100 98 99 103 97 91 85 85 80 80 80 80 79 79 79 79 79 79 79 79 79 80 79 80 80 81 81 81 81 81 81 80 80
82 90 84 80 75 70 75 88 93 99 102 100 97 103 100 96 102 101 104 102 96 91 88 84 80 80 80 80 79 79 79 79 79 79 79 79 79 79 79 80 80 81 81 81 81 80 80 80 80
89 89 86 72 72 81 83 87 93 96 100 102 100 95 103 105 102 104 106 103 96 92 91 80 79 80 80 80 79 79 79 79 79 79 79 79 79 79 79 79 80 81 81 81 80 80 80 79 79
89 87 74 73 75 81 88 93 96 95 95 98 100 94 96 102 106 105 104 104 97 95 92 83 79 79 79 80 79 79 79 78 78 79 79 79 78 78 79 79 80 80 80 80 80 79 79 79 79
80 82 69 69 76 84 90 94 95 95 98 97 97 94 96 104 103 105 106 105 102 97 90 84 80 79 79 79 79 78 78 78 78 78 78 78 78 78 79 79 80 80 80 80 79 79 78 78 78
76 75 70 73 75 81 89 98 94 95 95 95 100 91 99 101 106 106 106 106 103 101 92 86 84 81 79 78 78 78 78 78 78 77 78 78 78 78 78 79 79 79 79 78 78 78 78 78 78
81 77 71 75 75 77 90 94 98 97 96 106 103 89 91 102 105 105 105 105 103 102 94 89 86 84 82 81 78 78 78 77 77 77 77 78 78 78 78 77 78 78 78 78 78 78 78 78 78
87 70 67 71 75 79 90 88 97 101 97 98 99 98 102 106 105 102 101 102 102 101 94 91 89 86 86 85 80 78 78 77 77 77 77 77 80 79 78 80 78 78 78 78 77 77 77 77 77
76 69 70 80 82 82 87 89 92 92 93 93 95 100 102 105 102 98 99 98 99 98 93 93 87 87 88 89 80 81 81 80 80 80 78 80 80 80 83 79 77 77 78 78 77 77 77 77 80
77 69 77 80 84 86 84 84 90 87 85 93 91 94 98 100 99 97 99 101 101 100 95 94 87 86 89 88 81 84 82 81 81 81 79 80 82 81 82 78 79 77 77 78 78 77 78 79 81
72 78 79 80 84 82 80 85 82 85 87 94 95 97 98 98 98 98 97 100 102 99 95 92 89 87 86 86 84 85 84 82 82 82 80 79 82 80 81 81 80 78 79 80 79 81 79 81 87
74 77 80 82 82 81 83 79 80 81 88 93 93 93 93 94 97 100 100 101 100 96 92 90 87 85 86 82 84 85 84 84 84 83 82 83 83 81 82 82 83 82 83 82 81 83 83 84 86
75 76 76 78 79 80 77 78 80 81 87 86 87 88 90 92 94 98 98 98 96 96 90 89 88 86 87 84 83 85 85 85 85 84 82 83 84 81 82 82 82 82 83 83 83 82 82 82 83
75 68 72 74 76 74 78 70 72 82 85 83 84 86 88 89 92 93 96 95 97 92 90 84 86 86 85 84 84 87 87 89 87 86 82 83 83 81 82 82 82 83 83 83 81 83 83 82 83
66 67 59 71 75 76 75 62 75 82 81 80 82 84 85 88 90 92 95 94 94 88 87 86 89 85 83 85 85 88 89 89 89 87 85 85 84 83 83 82 81 83 83 82 82 81 79 79 79
64 56 60 65 76 75 73 67 77 82 81 79 81 83 85 86 88 89 91 92 92 89 84 82 84 84 82 83 84 86 86 87 88 87 86 84 84 84 82 81 81 83 81 81 80 77 77 74 77
55 58 61 61 71 73 69 68 75 79 79 78 80 82 84 85 87 89 90 91 91 88 85 84 82 83 82 84 83 87 87 86 87 87 85 83 83 83 81 82 81 82 79 77 76 76 77 77 77
63 60 58 64 70 67 66 66 70 75 76 75 77 79 81 83 88 89 89 90 90 86 83 83 82 82 82 83 82 84 84 84 85 86 83 83 83 82 80 81 79 79 77 76 77 77 76 76 75
60 56 57 63 68 65 64 64 70 73 73 75 75 76 80 83 86 88 88 87 87 85 83 82 81 81 81 83 83 85 85 86 86 85 81 82 82 80 80 79 77 77 75 76 76 75 74 74 73
59 55 56 55 61 65 61 58 62 69 74 75 77 77 78 79 82 85 87 86 87 84 82 82 80 80 81 82 83 84 84 84 83 81 81 82 81 81 81 79 77 76 75 74 73 73 73 69 72
52 62 57 55 52 44 60 43 58 66 68 73 75 75 77 79 83 84 85 86 86 87 86 82 80 80 81 82 82 80 82 81 83 82 82 81 80 80 80 78 77 76 76 73 72 73 71 69 69
54 61 53 49 40 41 44 49 57 66 63 68 73 76 77 79 81 83 85 87 90 89 86 80 79 79 80 81 82 82 81 83 84 82 78 78 78 78 76 76 76 75 74 71 71 71 70 69 69
65 57 53 54 52 43 52 51 53 59 63 68 72 75 77 80 80 84 86 86 86 89 86 80 79 78 79 79 80 80 78 80 81 79 77 78 77 76 75 75 73 72 71 71 70 67 68 68 68
61 53 37 36 38 35 51 48 51 59 65 68 69 73 76 79 80 81 83 85 85 88 82 78 79 77 79 79 80 80 80 79 78 77 77 73 71 73 72 72 71 69 69 68 67 69 68 68 66
57 50 38 31 36 43 55 46 54 68 68 66 67 73 75 75 77 81 83 84 88 88 81 80 78 77 77 78 78 81 80 82 80 76 72 71 73 73 73 72 71 69 69 67 70 68 67 67 65
55 50 59 47 48 40 47 54 64 63 63 66 68 71 73 74 75 75 82 84 87 87 81 80 78 77 76 77 77 80 79 79 73 72 72 73 73 72 72 71 70 69 70 70 68 67 66 65 65
58 61 44 44 30 30 42 46 48 54 58 60 62 65 70 72 75 75 82 84 86 88 83 80 78 77 78 79 77 79 77 73 72 73 72 72 72 71 70 70 69 69 69 68 66 65 65 64 64
53 50 52 50 44 34 33 41 58 56 58 57 55 57 60 72 75 76 84 86 88 90 82 79 78 77 76 78 78 76 72 72 74 73 73 72 71 71 70 69 69 68 68 66 64 64 65 63 61
57 52 51 36 34 38 35 38 60 62 60 57 50 55 64 68 77 78 78 87 89 88 83 80 78 78 76 77 76 72 70 71 72 72 72 71 70 71 69 69 67 66 66 66 66 65 64 62 60
MSLP
1009.15 1008.60 1007.89 1006.43 1005.28 1002.54 999.98 997.87 996.02 994.48 993.44 993.41 993.64 994.29 994.75 994.75 995.54 997.86 998.03 998.66 1000.38 1002.18 1003.52 1004.48 1005.05 1005.52 1006.13 1006.66 1007.37 1007.93 1008.43 1008.97 1009.46 1009.89 1010.26 1010.60 1010.89 1011.18 1011.52 1011.84 1012.21 1012.46 1012.69 1012.90 1013.13 1013.38 1013.51 1013.57 1013.69
1008.61 1007.41 1006.64 1005.38 1003.73 1001.14 998.80 997.03 995.52 994.23 993.39 993.66 994.36 994.91 995.05 995.33 996.01 997.50 998.30 999.34 1001.16 1002.54 1003.64 1004.36 1005.17 1005.67 1006.25 1006.79 1007.43 1008.09 1008.59 1009.09 1009.59 1009.98 1010.32 1010.83 1011.17 1011.45 1011.79 1012.11 1012.46 1012.69 1012.96 1013.18 1013.36 1013.49 1013.68 1013.77 1013.85
1008.87 1007.58 1006.12 1004.20 1002.24 1000.25 998.55 996.52 994.93 994.10 993.72 993.83 994.69 995.17 995.42 995.69 996.33 997.42 998.62 999.84 1001.42 1002.81 1003.64 1004.40 1005.32 1005.80 1006.30 1006.87 1007.59 1008.16 1008.71 1009.21 1009.64 1010.08 1010.51 1010.99 1011.36 1011.68 1012.07 1012.40 1012.67 1012.95 1013.20 1013.41 1013.51 1013.65 1013.83 1013.85 1013.91
1007.30 1006.32 1005.65 1003.51 1001.05 999.30 998.32 997.14 995.67 994.83 994.31 994.55 995.03 995.35 995.67 996.44 997.00 997.75 998.63 999.77 1001.47 1002.81 1003.55 1004.76 1005.39 1005.98 1006.49 1007.05 1007.72 1008.32 1008.87 1009.33 1009.73 1010.17 1010.67 1011.18 1011.59 1011.96 1012.32 1012.59 1012.88 1013.14 1013.41 1013.58 1013.74 1013.86 1014.00 1014.01 1014.05
1006.84 1005.24 1003.95 1002.11 1000.51 999.43 998.02 996.82 995.70 994.90 994.78 995.02 994.97 995.44 996.19 997.07 997.59 998.32 998.88 999.59 1001.13 1002.53 1003.57 1004.92 1005.49 1006.07 1006.60 1007.10 1007.78 1008.44 1008.99 1009.52 1009.91 1010.41 1010.91 1011.30 1011.76 1012.19 1012.57 1012.79 1013.03 1013.28 1013.51 1013.81 1013.94 1013.98 1014.08 1014.11 1014.15
1005.79 1004.99 1003.35 1001.22 999.85 998.77 997.51 997.02 996.31 995.23 994.59 995.26 995.27 995.97 996.68 997.22 997.52 998.12 998.81 999.41 1000.66 1002.03 1003.56 1004.92 1005.82 1006.27 1006.74 1007.22 1007.74 1008.35 1008.98 1009.60 1010.09 1010.55 1011.11 1011.55 1011.98 1012.36 1012.72 1012.98 1013.22 1013.46 1013.66 1013.83 1014.04 1014.17 1014.26 1014.30 1014.38
1005.28 1004.19 1002.60 1001.24 999.63 998.04 996.83 996.07 995.52 995.03 994.65 994.70 995.60 995.86 996.29 996.94 997.22 997.90 998.52 999.01 1000.26 1001.46 1003.23 1004.86 1005.71 1006.44 1006.98 1007.39 1007.81 1008.45 1008.97 1009.60 1010.16 1010.62 1011.16 1011.68 1012.10 1012.49 1012.84 1013.07 1013.36 1013.60 1013.73 1013.88 1013.99 1014.14 1014.34 1014.38 1014.41
1005.04 1004.21 1002.46 1000.90 999.42 997.74 997.42 996.20 995.10 994.55 994.07 994.26 995.02 995.74 996.25 996.51 996.82 997.88 998.56 998.80 999.79 1000.93 1002.63 1004.38 1005.45 1006.24 1006.99 1007.67 1008.03 1008.52 1009.08 1009.65 1010.28 1010.72 1011.21 1011.79 1012.14 1012.53 1012.90 1013.09 1013.27 1013.53 1013.74 1013.89 1014.05 1014.17 1014.24 1014.38 1014.35
1004.84 1003.91 1001.76 1000.63 999.83 998.74 998.09 996.84 995.82 995.03 994.86 995.04 995.47 996.18 996.67 996.84 997.40 997.89 998.37 998.88 999.34 1000.36 1001.96 1003.81 1005.03 1005.98 1006.47 1007.38 1008.26 1008.75 1009.33 1009.92 1010.47 1010.91 1011.27 1011.78 1012.12 1012.55 1012.89 1012.93 1013.30 1013.57 1013.86 1014.05 1014.15 1014.22 1014.22 1014.30 1014.21
1004.53 1003.11 1001.29 1001.14 1000.06 999.01 998.28 997.44 996.66 996.11 995.22 995.48 996.15 996.62 997.14 996.94 997.33 998.02 998.12 998.57 998.95 999.94 1001.50 1002.99 1004.59 1005.54 1006.07 1006.78 1008.15 1008.73 1009.26 1009.88 1010.33 1010.72 1011.31 1011.42 1011.65 1012.20 1012.44 1012.93 1013.35 1013.64 1013.85 1014.09 1014.22 1014.29 1014.26 1014.34 1013.96
1003.73 1001.97 1001.97 1001.18 1000.46 999.75 998.97 998.23 997.70 996.96 996.08 995.74 996.17 997.11 997.32 997.10 997.08 997.74 998.02 997.93 998.41 999.37 1000.73 1002.07 1004.00 1005.17 1005.64 1006.28 1007.81 1008.37 1008.95 1009.49 1010.01 1010.40 1010.93 1011.08 1011.30 1011.88 1012.19 1012.94 1013.33 1013.62 1013.86 1013.95 1013.97 1014.07 1014.06 1013.70 1013.50
1002.85 1002.19 1001.72 1001.30 1000.79 1000.38 999.85 999.49 998.69 998.14 997.33 997.06 996.80 996.85 996.97 996.87 997.07 997.21 997.89 997.53 997.69 998.59 1000.00 1001.40 1003.19 1004.61 1005.28 1006.11 1007.25 1007.97 1008.63 1009.12 1009.54 1010.00 1010.63 1010.75 1010.97 1011.53 1011.75 1012.27 1012.71 1013.05 1013.19 1013.22 1013.34 1013.20 1013.28 1013.16 1012.54
1002.51 1001.87 1001.34 1001.03 1000.85 1000.56 1000.44 999.81 999.69 999.11 998.57 998.11 997.82 997.72 997.61 997.33 996.93 996.96 997.39 997.44 997.44 998.14 999.39 1000.91 1002.62 1003.84 1004.89 1005.88 1006.58 1007.35 1008.04 1008.66 1008.87 1009.59 1010.27 1010.33 1010.58 1011.14 1011.24 1011.56 1011.88 1012.10 1012.23 1012.45 1012.63 1012.47 1012.57 1012.66 1012.56
1003.52 1002.75 1002.01 1001.49 1000.92 1000.55 1000.32 1000.01 1000.07 999.59 999.57 999.07 998.74 998.53 998.29 998.00 997.43 996.92 997.15 997.46 997.50 997.94 999.23 1000.40 1002.05 1003.36 1004.37 1005.40 1006.13 1006.76 1007.30 1007.85 1008.26 1008.94 1009.70 1010.04 1009.99 1010.74 1010.93 1011.17 1011.46 1011.51 1011.49 1011.65 1011.71 1012.13 1012.45 1012.74 1012.64
1003.80 1003.02 1002.32 1001.82 1001.36 1000.84 1001.01 1000.07 999.52 999.74 999.55 999.25 999.18 999.02 998.88 998.58 998.01 997.44 997.35 997.53 997.66 997.98 998.96 1000.26 1001.54 1002.96 1003.87 1004.93 1005.65 1006.10 1006.60 1007.18 1007.69 1008.26 1008.98 1009.71 1009.73 1010.31 1010.68 1010.88 1011.07 1011.11 1011.19 1011.34 1011.83 1012.02 1012.16 1012.78 1012.77
1004.30 1003.60 1002.17 1001.32 1000.77 1000.22 1000.54 998.56 999.20 999.18 999.05 998.72 998.82 998.91 998.70 998.42 998.22 997.72 997.74 997.75 997.91 998.54 999.07 999.75 1000.82 1002.29 1003.76 1004.45 1005.31 1005.68 1006.10 1006.62 1007.09 1007.45 1008.42 1009.15 1009.56 1010.08 1010.41 1010.82 1011.03 1010.91 1011.20 1011.67 1012.12 1012.43 1012.77 1012.84 1012.86
1003.47 1002.38 1001.50 1000.44 999.97 999.21 998.85 997.49 997.76 997.83 997.77 997.72 997.80 997.84 997.88 997.84 997.77 997.80 997.68 998.05 997.90 998.50 999.81 1000.62 1000.64 1001.70 1002.93 1004.37 1005.18 1005.50 1005.72 1006.08 1006.57 1006.95 1007.90 1008.72 1009.32 1009.89 1010.35 1010.71 1011.01 1010.92 1011.41 1012.01 1012.45 1012.84 1013.02 1013.28 1013.18
1002.51 1001.92 1000.90 999.92 999.44 998.48 997.91 997.44 997.07 997.34 997.50 997.17 997.14 996.98 996.74 996.53 996.56 997.13 997.44 997.53 997.89 998.08 999.30 1000.42 1001.13 1001.60 1002.48 1003.88 1005.03 1005.46 1005.62 1005.97 1006.26 1006.75 1007.62 1008.32 1009.16 1009.73 1010.31 1010.61 1010.95 1010.98 1011.78 1012.51 1012.87 1013.19 1013.24 1013.53 1013.51
1002.65 1002.01 1001.04 1000.36 1000.02 999.14 998.18 998.19 997.96 997.54 997.48 997.56 997.28 996.96 996.28 995.65 995.71 995.83 996.62 997.08 997.28 997.86 998.43 999.56 1000.76 1001.86 1002.49 1003.40 1004.44 1005.03 1005.23 1005.70 1005.95 1006.50 1007.44 1008.13 1008.96 1009.62 1010.34 1010.62 1011.23 1011.68 1012.29 1012.93 1013.35 1013.45 1013.66 1013.74 1013.88
1002.87 1002.39 1001.31 1000.86 1000.62 999.98 998.91 998.03 997.89 997.44 997.23 997.44 997.44 996.80 996.04 995.19 994.82 994.69 995.23 996.16 996.70 997.03 998.00 998.91 1000.04 1001.22 1002.17 1002.80 1003.56 1004.28 1004.59 1005.24 1005.65 1006.42 1007.47 1008.04 1008.77 1009.52 1010.20 1010.64 1011.38 1012.01 1012.70 1013.14 1013.58 1013.97 1014.02 1014.24 1014.48
1002.15 1002.44 1001.90 1001.84 1001.41 1000.46 999.67 998.37 997.94 997.53 996.78 996.85 996.73 996.90 996.04 995.39 994.55 994.25 994.26 994.83 995.65 996.31 997.20 998.25 999.38 1000.53 1001.64 1002.42 1003.14 1003.89 1004.32 1005.13 1005.54 1006.53 1007.49 1008.06 1008.68 1009.42 1009.92 1010.77 1011.45 1012.03 1012.90 1013.38 1013.76 1013.98 1014.17 1014.30 1014.14
1001.91 1002.25 1002.64 1002.67 1002.46 1001.54 1000.61 998.74 997.53 996.77 995.81 995.49 995.32 995.53 995.63 995.14 994.37 994.11 994.03 994.10 994.29 995.00 996.27 997.58 998.61 999.67 1000.87 1001.92 1002.51 1002.89 1003.26 1004.20 1004.97 1006.10 1007.13 1008.00 1008.83 1009.60 1009.95 1010.79 1011.53 1012.15 1012.88 1013.53 1013.94 1014.36 1014.80 1014.79 1014.65
1002.33 1002.55 1003.46 1003.95 1003.18 1003.18 1001.89 998.94 996.79 995.84 995.10 994.69 994.42 994.35 994.31 994.57 994.27 993.94 993.78 993.58 993.45 993.92 995.13 997.25 998.26 999.23 1000.03 1001.16 1001.79 1002.38 1002.79 1003.75 1004.59 1005.75 1007.00 1008.01 1008.93 1009.82 1010.28 1010.91 1011.53 1012.29 1013.08 1013.74 1014.05 1014.44 1014.47 1014.66 1014.50
1001.66 1002.49 1003.52 1003.19 1002.20 1000.92 999.39 998.46 996.87 995.61 994.77 994.05 993.59 993.38 993.33 993.33 993.49 993.46 993.62 993.20 993.28 993.07 994.19 996.47 997.74 998.74 999.49 1000.63 1001.47 1001.95 1002.52 1003.09 1004.17 1005.53 1006.85 1007.89 1008.93 1009.88 1010.65 1011.25 1011.96 1012.62 1013.27 1013.60 1013.75 1013.93 1013.80 1014.07 1014.78
1001.45 1001.88 1002.57 1002.27 1000.86 999.95 999.08 998.34 996.46 996.11 995.01 994.28 993.79 993.15 992.63 992.29 992.31 992.63 992.69 992.53 992.56 992.39 993.58 995.65 996.97 998.20 999.21 1000.19 1000.71 1001.70 1002.30 1002.70 1003.77 1005.18 1006.35 1007.65 1008.92 1009.84 1010.83 1011.50 1012.25 1012.86 1013.31 1013.76 1014.19 1014.26 1014.59 1015.26 1015.44
1001.21 1002.33 1002.52 1001.56 1000.55 999.18 997.86 996.63 995.16 994.45 994.91 994.84 994.35 993.19 992.13 991.71 991.70 991.41 991.74 991.76 991.33 991.53 992.94 994.59 996.24 997.49 998.71 999.60 1000.29 1001.54 1001.90 1002.43 1003.70 1004.90 1006.54 1007.78 1008.80 1009.84 1010.85 1011.71 1012.55 1013.18 1013.64 1013.99 1014.21 1014.58 1015.20 1015.39 1016.20
1001.37 1001.05 1001.11 1001.05 1001.10 1000.10 998.66 996.85 994.69 995.32 994.93 994.27 993.57 992.84 991.88 991.27 991.50 991.52 990.89 990.88 990.38 990.57 992.00 993.72 995.17 996.39 997.94 998.84 999.70 1000.54 1001.49 1001.95 1003.65 1005.09 1006.55 1007.63 1008.71 1009.92 1010.99 1012.03 1012.86 1013.49 1013.84 1014.15 1014.50 1015.07 1015.72 1016.23 1016.74
1001.27 1001.42 1001.55 1001.86 1001.50 1000.15 998.41 996.77 995.87 995.83 995.30 995.34 994.68 993.56 992.19 991.48 991.02 990.41 989.36 989.40 989.67 989.76 991.07 992.40 994.09 995.24 996.67 997.69 998.83 999.71 1000.87 1002.08 1003.66 1004.88 1006.12 1007.24 1008.63 1009.77 1011.13 1012.28 1013.03 1013.62 1013.97 1014.39 1015.12 1015.76 1016.35 1016.93 1017.19
1001.31 1001.31 1001.57 1002.01 1002.10 1001.08 999.48 997.01 996.28 996.33 996.37 996.60 996.43 995.09 993.44 991.43 990.57 989.70 987.76 987.97 988.42 988.83 990.23 991.74 993.49 994.66 995.99 997.14 998.38 999.34 1000.98 1002.23 1003.59 1004.77 1005.99 1007.26 1008.68 1009.81 1011.13 1012.38 1013.13 1013.71 1014.23 1014.95 1015.65 1016.16 1016.73 1017.29 1017.60
1002.10 1001.84 1001.97 1002.96 1002.73 1002.01 1001.10 997.12 997.21 996.65 997.28 997.60 997.35 996.44 994.29 991.30 990.43 989.66 989.17 987.51 987.41 988.40 989.41 991.34 992.67 993.67 995.13 996.44 998.33 999.90 1001.36 1002.86 1004.02 1004.93 1005.99 1007.58 1008.85 1010.13 1011.20 1012.38 1013.31 1014.20 1014.74 1015.32 1015.71 1016.18 1017.00 1017.61 1017.89
Wind_Speed
11 11 10 10 7 8 15 17 18 19 10 9 6 8 15 14 15 9 12 15 25 21 18 18 17 18 19 19 17 17 17 17 16 16 14 14 12 14 14 13 12 11 11 10 10 10 10 9 9
11 15 8 7 10 12 14 19 18 17 9 8 7 5 8 3 18 12 14 19 22 19 15 16 17 18 19 19 18 18 18 18 17 16 16 14 12 14 13 12 11 11 11 11 10 10 9 9 8
11 15 7 6 12 16 16 21 16 9 16 9 2 1 7 8 13 12 14 21 21 17 15 16 17 18 19 19 18 18 18 18 17 16 16 14 13 13 13 11 11 10 11 10 10 9 8 8 8
7 7 7 11 21 19 24 20 23 22 8 5 2 6 2 11 11 12 13 22 19 18 15 18 18 18 19 19 19 18 18 18 18 17 16 14 13 12 12 11 11 10 10 10 10 9 8 7 6
9 8 13 17 24 25 22 19 20 20 2 14 9 13 3 12 9 13 10 19 18 18 17 17 19 18 19 20 20 18 18 17 17 16 15 15 13 12 11 11 11 10 10 9 9 8 6 6 5
9 8 15 18 24 25 22 23 24 25 14 10 6 1 2 13 12 10 12 16 18 19 19 17 17 18 19 20 20 20 18 17 16 16 15 14 13 12 11 11 10 10 10 9 8 7 5 4 3
15 14 19 23 24 26 24 23 24 23 24 15 17 13 6 16 9 9 11 16 18 20 20 17 16 16 18 18 19 19 18 17 16 16 15 14 13 12 12 11 10 9 9 8 8 7 5 4 4
13 14 25 23 21 28 23 26 26 22 20 17 11 12 8 10 15 10 10 13 17 18 20 18 15 16 14 14 17 18 17 17 15 15 15 14 14 14 12 11 10 10 9 8 7 7 6 6 6
18 16 18 26 26 24 23 27 24 24 16 7 5 10 14 4 10 10 11 13 15 15 19 18 16 14 14 14 13 15 16 15 15 14 15 12 8 10 11 9 12 9 8 7 7 7 8 8 9
18 18 27 22 23 22 23 24 23 23 27 12 10 13 13 16 8 6 12 14 16 18 20 18 16 16 14 13 13 11 12 9 9 10 11 8 9 8 10 11 11 9 8 7 7 8 9 8 6
20 24 23 25 27 25 24 26 24 24 23 16 15 15 21 16 10 12 15 17 17 18 17 20 17 14 15 13 9 7 6 7 7 10 10 8 8 7 6 5 5 5 7 5 7 6 6 9 8
24 27 25 25 25 25 27 25 25 25 23 22 18 14 16 18 16 15 14 16 16 19 19 21 21 16 12 12 10 9 8 8 7 9 11 6 5 6 6 7 7 6 6 8 8 6 7 10 3
21 21 22 22 24 25 25 27 25 28 27 22 20 20 19 20 17 14 14 15 12 16 17 20 20 17 11 15 11 10 10 9 10 9 10 7 7 7 6 7 8 8 8 8 8 5 4 4 4
18 21 23 23 24 21 23 24 25 27 24 25 24 22 19 20 22 13 12 13 10 13 17 19 21 17 14 13 13 9 9 11 9 10 10 10 5 7 5 5 5 6 5 5 4 5 3 1 4
19 19 19 20 20 24 22 27 29 24 25 26 25 23 22 23 24 20 11 10 11 6 19 21 20 17 15 14 13 8 9 11 9 10 13 10 6 7 5 3 3 4 4 5 5 2 2 1 2
22 23 23 20 25 25 26 27 26 26 26 27 26 23 23 22 25 23 16 13 8 7 14 22 19 19 10 9 10 7 9 10 8 9 11 10 7 7 3 4 4 3 5 3 3 2 2 1 2
19 21 27 27 26 27 26 30 25 18 21 23 23 24 24 24 23 23 21 17 11 7 15 10 20 21 16 8 7 7 7 6 8 8 10 9 8 7 4 5 3 3 4 4 3 1 2 3 4
22 24 25 26 24 27 19 23 16 16 21 20 18 20 20 23 26 20 19 19 13 11 19 19 15 17 18 13 7 7 6 7 6 8 10 11 7 9 5 3 6 3 4 3 4 5 5 2 4
27 29 30 26 26 30 22 22 25 22 18 21 20 20 25 23 23 24 23 20 17 10 22 22 19 18 14 13 11 11 9 9 5 6 14 12 7 9 5 3 6 4 4 3 3 2 5 4 4
23 30 29 27 27 27 28 26 25 24 17 19 20 23 22 25 23 22 25 21 21 15 23 23 22 21 16 13 13 12 9 10 6 7 12 12 10 9 6 7 6 6 5 5 7 6 4 4 5
23 24 25 24 27 29 24 26 22 28 20 20 22 22 27 25 20 14 16 22 22 13 23 23 23 22 19 18 13 10 7 9 6 11 10 10 12 10 7 8 7 7 6 6 5 4 4 2 3
23 20 20 23 17 18 22 18 21 19 21 23 20 20 23 26 22 16 17 15 21 20 19 24 24 23 20 20 17 17 13 13 9 12 10 9 12 10 10 9 9 9 8 7 5 6 5 4 5
23 14 13 23 13 13 32 17 16 21 21 22 21 20 21 25 24 21 21 20 14 19 19 22 22 21 21 20 19 14 13 11 9 11 15 12 10 11 13 11 12 9 8 8 8 6 4 3 5
15 11 17 25 23 17 22 20 17 20 21 20 18 18 22 24 28 22 22 22 18 16 21 23 23 21 20 21 20 15 14 16 13 14 13 11 10 10 12 12 10 10 9 9 7 6 7 6 7
17 16 8 10 8 13 24 20 15 14 23 25 23 22 22 22 26 25 21 23 22 19 24 23 24 22 21 23 19 16 14 16 17 19 14 15 11 11 11 12 11 8 7 6 4 6 8 7 8
16 13 7 9 12 20 24 19 17 18 5 7 21 27 21 18 10 28 25 25 25 20 24 25 24 23 22 22 21 18 14 13 15 14 14 12 11 11 13 11 10 9 8 5 7 8 7 9 6
18 19 19 20 21 21 16 27 24 17 17 21 20 22 19 14 22 15 29 28 24 19 25 25 24 25 23 24 20 20 16 18 17 20 16 13 14 12 12 12 11 10 9 10 9 8 8 7 4
17 16 15 10 12 19 16 20 10 9 14 21 24 22 18 12 17 17 26 30 23 21 22 26 26 26 26 27 22 19 17 19 20 19 18 17 16 14 13 12 11 11 10 11 10 8 7 6 5
15 14 18 15 12 15 19 10 2 9 14 17 22 24 28 15 16 21 17 19 21 16 25 24 26 26 24 25 24 22 21 22 20 18 18 17 17 15 14 13 12 11 11 10 9 7 8 8 6
23 24 20 8 5 5 7 17 10 16 9 14 15 24 32 20 16 24 20 18 18 18 26 26 25 26 25 26 22 21 20 20 19 19 18 18 17 15 15 13 13 12 11 9 6 10 9 8 7
Wind_Direction
275 245 243 262 250 229 259 254 255 269 295 319 354 340 350 333 50 94 99 98 120 137 143 145 139 139 140 138 136 133 132 132 130 129 129 131 133 123 116 116 120 122 121 119 117 106 97 95 95
273 250 240 274 246 253 249 243 254 275 273 84 49 314 281 33 91 119 107 119 127 136 142 142 142 142 141 139 138 137 137 136 134 138 136 140 139 127 124 123 122 121 121 119 114 107 105 104 107
250 254 253 226 236 240 257 271 275 276 2 121 141 24 323 66 60 89 106 118 125 140 151 134 144 144 143 141 139 140 139 139 140 143 141 144 142 128 129 121 118 118 118 116 113 113 116 119 122
225 221 252 257 252 242 236 264 282 291 308 323 160 248 360 55 69 75 132 132 133 144 157 140 142 143 144 141 141 141 140 143 146 146 145 145 140 130 127 120 119 120 122 120 118 119 125 127 132
234 258 238 244 242 250 265 266 268 270 170 292 227 237 214 108 109 117 149 142 145 152 143 146 142 145 146 144 142 142 143 146 148 147 147 147 142 134 128 124 125 128 125 122 124 129 137 138 147
222 231 248 246 248 253 251 247 262 271 264 238 253 298 274 123 136 148 165 161 151 155 136 145 144 146 147 148 145 145 147 150 150 146 148 146 140 134 129 128 130 128 128 133 135 140 145 144 159
244 238 244 255 260 265 261 244 247 247 259 210 259 206 218 153 164 155 167 168 157 157 141 152 155 149 148 149 146 148 150 151 150 147 148 144 139 132 129 129 130 132 138 142 148 157 161 173 187
237 252 258 258 260 262 266 277 283 280 251 234 195 261 260 287 135 154 164 180 163 162 144 156 159 160 158 155 148 150 152 148 150 147 144 143 136 132 134 137 145 152 154 153 163 170 178 198 207
257 245 251 250 255 269 275 279 278 285 285 284 263 258 271 251 127 163 181 202 173 167 141 154 161 165 168 158 155 145 146 143 145 145 143 141 154 161 158 183 151 158 156 165 182 190 199 212 223
234 246 246 255 269 275 277 275 278 275 272 237 262 253 283 268 171 219 207 198 186 167 147 156 159 167 171 160 151 157 154 160 166 163 160 171 157 182 187 142 153 159 167 184 199 211 222 226 227
236 247 256 261 272 282 291 294 293 287 282 264 224 244 239 244 243 190 246 208 197 174 157 159 154 166 177 152 155 162 158 158 170 168 169 192 157 187 142 136 159 172 189 197 198 212 227 226 226
247 256 256 268 272 273 277 285 285 287 283 293 307 282 274 268 231 197 227 233 203 177 160 155 156 164 184 135 157 162 164 159 168 172 179 199 165 173 177 160 176 188 179 212 195 203 212 235 262
274 274 272 264 262 269 272 270 274 276 283 289 286 289 286 286 284 226 210 241 215 174 153 151 155 160 182 146 160 165 167 166 169 169 186 204 178 171 201 163 179 193 192 200 207 174 157 229 220
285 289 288 291 289 277 275 269 261 260 273 280 282 284 280 279 279 267 225 228 236 173 148 143 154 161 171 158 165 169 169 169 174 166 183 215 189 169 200 173 198 193 198 161 202 146 174 339 121
280 286 278 271 266 264 267 264 262 266 258 255 258 263 259 269 276 274 247 254 250 194 150 144 152 159 171 147 167 181 174 169 181 169 173 204 185 171 193 163 226 201 97 95 94 34 132 76 89
272 269 270 267 262 254 244 253 250 249 249 252 254 255 262 253 250 265 268 241 270 104 155 149 152 149 160 147 169 188 175 167 186 163 166 188 175 173 204 153 221 221 114 114 52 43 20 200 231
263 266 266 269 260 258 246 251 238 261 258 247 244 241 239 245 239 244 260 266 229 160 151 164 151 154 145 159 172 182 163 176 179 149 156 174 165 162 180 148 192 145 101 117 122 271 134 37 330
272 273 273 272 271 270 283 296 290 250 262 277 267 266 255 243 227 227 235 249 246 184 160 162 160 161 157 164 168 193 183 191 176 154 155 158 167 153 187 189 130 115 78 84 53 40 43 6 26
289 286 282 280 285 289 286 270 277 282 275 284 276 265 264 237 256 212 218 239 244 219 165 169 170 168 165 169 176 187 192 183 181 154 141 149 156 151 184 125 109 93 101 109 71 73 91 35 21
282 286 281 282 278 277 281 276 271 266 259 265 276 282 276 267 229 244 206 213 231 227 174 171 168 171 175 177 181 184 184 176 175 135 143 150 154 147 188 128 130 118 119 92 66 49 29 37 37
280 257 268 272 287 288 295 279 279 285 266 259 248 258 274 278 264 260 216 210 210 203 174 172 171 170 178 185 180 179 167 168 164 135 145 159 144 155 139 123 127 117 112 94 97 73 86 143 132
288 290 317 315 298 277 250 270 273 262 263 244 243 228 255 265 263 261 262 257 201 204 179 171 172 170 181 184 182 185 177 171 166 147 146 143 143 170 126 124 123 121 115 117 92 60 30 16 46
267 302 311 290 293 270 268 251 276 254 262 265 255 255 231 250 259 243 254 258 238 190 171 170 173 177 175 187 185 184 176 161 152 148 139 141 139 125 115 122 119 113 101 98 103 124 111 80 78
293 256 253 262 254 261 278 266 268 263 271 276 289 262 255 231 243 237 238 250 258 189 164 167 174 178 175 184 187 184 173 161 154 141 141 145 130 128 130 122 110 112 125 133 130 143 128 90 81
257 264 299 276 263 257 256 269 247 259 268 275 289 269 266 249 219 236 226 241 240 201 161 165 175 175 177 182 182 182 177 156 146 150 146 139 133 133 132 126 131 131 128 124 121 94 76 54 60
289 240 249 295 295 295 302 285 268 295 309 295 254 277 263 260 278 214 229 234 234 203 165 166 176 171 178 181 181 179 181 156 145 139 142 137 136 133 133 130 128 136 128 123 93 82 75 81 69
273 265 271 281 285 287 289 282 278 344 328 306 263 287 259 271 277 284 218 230 232 200 170 170 174 170 178 182 178 183 172 139 141 137 136 139 134 131 129 132 133 128 121 99 92 85 77 68 75
271 278 284 275 287 276 274 289 316 319 324 334 320 311 291 270 292 262 225 219 223 202 172 179 173 172 177 183 178 172 149 136 138 139 140 137 131 131 135 134 131 122 111 99 95 88 82 76 56
279 275 240 260 273 264 280 259 336 331 307 342 343 326 311 242 259 271 215 209 212 201 170 174 175 174 178 180 176 148 143 141 139 134 137 132 135 133 132 128 121 113 106 91 94 104 98 83 71
267 275 286 292 293 298 278 270 281 297 303 5 358 306 314 359 230 267 299 219 189 210 166 171 176 174 178 177 160 141 141 138 139 136 132 130 130 129 123 127 109 111 109 121 116 87 84 82 71